Pottstown, PA

6:55 PM EST on November 21, 2019 (GMT -0500)
Pottstown Limerick

Weather History for KPTW - October, 2019

Change the Weather History Date:

Monday, October 21, 2019

  Actual Average (KRDG) Record (KRDG)
Temperature  
Mean Temperature 56 °F -  
Max Temperature 66 °F 59 °F 86 °F (1947)
Min Temperature 46 °F 39 °F 22 °F (1972)
Degree Days  
Heating Degree Days 9    
Growing Degree Days 6 (Base 50)    
Moisture  
Dew Point 49 °F    
Average Humidity 84    
Maximum Humidity 100    
Minimum Humidity 48    
Precipitation  
Precipitation 0.00 in - - ()
Sea Level Pressure  
Sea Level Pressure 30.06 in    
Wind  
Wind Speed 4 mph (NNE)    
Max Wind Speed 10 mph    
Max Gust Speed -    
Visibility 9 miles    
Events      
Averages and records for this station are not official NWS values.
T = Trace of Precipitation, MM = Missing Value Source: NWS Daily Summary

Daily Weather History Graph

Daily Weather History Graph

Search for Another Location

Airport or City:

Astronomy

Oct. 21, 2019 Rise Set
Actual Time 7:19 AM EDT 6:14 PM EDT
Civil Twilight 6:51 AM EDT 6:41 PM EDT
Nautical Twilight 6:19 AM EDT 7:13 PM EDT
Astronomical Twilight 5:48 AM EDT 7:44 PM EDT
Moon No Moon Rise 2:35 PM EDT
Length of Visible Light 11h 50m
Length of Day
10h 54m
Waning Gibbous, 48% of the Moon is Illuminated
Oct 21
Waning Gibbous
Oct 27
New
Nov 4
First Quarter
Nov 12
Full
Nov 19
Last Quarter

Hourly Weather History & Observations

Time (EDT) Temp. Dew Point Humidity Pressure Visibility Wind Dir Wind Speed Gust Speed Precip Events Conditions
12:54 AM 51.1 °F 51.1 °F 100% 29.99 in 8.0 mi North 4.6 mph - 0.00 in   Overcast
1:01 AM 51.1 °F 51.1 °F 100% 29.99 in 8.0 mi North 4.6 mph - N/A   Overcast
1:49 AM 51.8 °F 51.8 °F 100% 30.01 in 8.0 mi NNW 6.9 mph - N/A   Overcast
1:54 AM 51.1 °F 51.1 °F 100% 30.01 in 8.0 mi North 6.9 mph - N/A   Overcast
2:38 AM 50.0 °F 50.0 °F 100% 30.01 in 8.0 mi North 6.9 mph - N/A   Mostly Cloudy
2:49 AM 50.0 °F 50.0 °F 100% 30.01 in 8.0 mi NNE 4.6 mph - N/A   Scattered Clouds
2:54 AM 50.0 °F 48.9 °F 96% 30.01 in 8.0 mi North 4.6 mph - N/A   Partly Cloudy
3:54 AM 48.9 °F 48.9 °F 100% 30.01 in 8.0 mi Calm Calm - N/A   Clear
4:54 AM 48.0 °F 48.0 °F 100% 30.02 in 8.0 mi Calm Calm - N/A   Clear
5:46 AM 46.9 °F 46.9 °F 100% 30.06 in 7.0 mi West 3.5 mph - N/A   Mostly Cloudy
5:54 AM 48.9 °F 48.9 °F 100% 30.06 in 8.0 mi WNW 5.8 mph - N/A   Overcast
6:54 AM 50.0 °F 48.0 °F 93% 30.07 in 9.0 mi NNE 5.8 mph - N/A   Overcast
7:54 AM 48.0 °F 48.0 °F 100% 30.07 in 7.0 mi Calm Calm - N/A   Clear
8:54 AM 52.0 °F 48.9 °F 89% 30.09 in 7.0 mi North 6.9 mph - N/A   Clear
9:54 AM 55.9 °F 50.0 °F 80% 30.10 in 9.0 mi Variable 5.8 mph - N/A   Clear
10:54 AM 57.9 °F 48.0 °F 70% 30.10 in 9.0 mi North 8.1 mph - N/A   Clear
11:54 AM 61.0 °F 48.0 °F 62% 30.09 in 9.0 mi NNE 10.4 mph - N/A   Clear
12:54 PM 63.0 °F 48.0 °F 58% 30.08 in 10.0 mi NE 3.5 mph - N/A   Clear
1:54 PM 63.0 °F 48.0 °F 58% 30.06 in 9.0 mi Calm Calm - N/A   Clear
3:54 PM 64.9 °F 48.0 °F 54% 30.07 in 9.0 mi South 3.5 mph - N/A   Clear
4:54 PM 66.0 °F 46.9 °F 50% 30.06 in 10.0 mi Variable 4.6 mph - N/A   Clear
5:54 PM 64.0 °F 44.1 °F 48% 30.07 in 10.0 mi Calm Calm - N/A   Clear
6:54 PM 55.0 °F 45.0 °F 69% 30.10 in 10.0 mi Calm Calm - N/A   Clear
7:54 PM 52.0 °F 46.0 °F 80% 30.11 in 10.0 mi NE 3.5 mph - N/A   Clear
8:54 PM 55.0 °F 45.0 °F 69% 30.11 in 10.0 mi Variable 4.6 mph - N/A   Clear
9:54 PM 51.1 °F 48.0 °F 89% 30.12 in 10.0 mi Calm Calm - N/A   Clear
10:54 PM 51.1 °F 51.1 °F 100% 30.10 in 10.0 mi East 3.5 mph - N/A   Mostly Cloudy
11:54 PM 54.0 °F 52.0 °F 93% 30.12 in 9.0 mi NE 3.5 mph - N/A   Overcast